Погода в Андреевке

Россия / Московская область     55°58′51″N   37°07′51″E
темп.,
°C
ветер,
м/с
пор.,
м/с
влажн.,
%
обл.,
%
осадки,
мм/ч
давл.,
гПа
погр.,
м
26 октября, вт
вт2600:000юз514825 0.0 1025432
03:000зюз51486100 0.0 1025435
06:000юз51388100 0.0 1023405
09:00+1юз51481100 0.0 1022460
12:00+4юз61466100 0.0 1021590
15:00+5юз61364100 0.0 1019641
18:00+3юз51471100 0.0 1019459
21:00+2юз51473100 0.0 1019495
27 октября, ср
ср2700:00+2юз51477100 0.0 1018451
03:00+2юз51378100 0.0 1016429
06:00+2юз51476100 0.0 1014470
09:00+3юз61372100 0.0 1013559
12:00+5юз61370100 0.0 1011693
15:00+4зюз51291100 1.2 1011867
18:00+5з61289100 0.2 1012723
21:00+6з51286100 0.3 1012613
28 октября, чт
чт2800:00+5зюз51184100 0.1 1012511
03:00+4юз41093100 0.1 1012339
06:00+4ююз3895100 0.0 1009268
09:00+5юз51296100 1.1 1008552
12:00+7зюз41297100 0.9 1007595
15:00+9зсз61394100 2.3 1008799
18:00+6с61093100 1.4 1013829
21:00+5с61086100 1.5 1019844
29 октября, пт
пт2900:00+3с5884100 0.0 1023666
03:000ссв478485 0.0 1027367
06:00−1св248696 0.0 1029238
09:00−1юв246951 0.0 1031271
12:00+2ю34505 0.0 1031494
15:00+3ююз36526 0.0 1031504
18:00+1ююз38705 0.0 1031193
21:00+1ююз411885 0.0 1031246
30 октября, сб
сб3000:00+2юз4129313 0.0 1030280
03:00+2юз41294100 0.0 1030275
06:00+2юз4129212 0.0 1030280
09:00+3юз5139053 0.0 1030324
12:00+7юз5137480 0.0 1029450
15:00+8юз5137386 0.0 1028537
18:00+5юз513847 0.0 1027406
21:00+5юз5158880 0.0 1027436